| time (UTC) | temp F | wind direction | speed MPH | gust MPH | rain 1hr in | rain 24hr in | rain mn in | humidity % | barometer mb |
| 20260504021534 | 32 | 0 | 0.0 | 0.0 | 0.00 | 0.00 | 0.00 | 82 | 1009.2 |
| 20260504020037 | 32 | 0 | 0.0 | 0.0 | 0.00 | 0.00 | 0.00 | 82 | 1009.1 |
| 20260504014532 | 33 | 0 | 0.0 | 0.0 | 0.00 | 0.00 | 0.00 | 79 | 1009.1 |
| 20260504013042 | 34 | 0 | 0.0 | 0.0 | 0.00 | 0.00 | 0.00 | 79 | 1008.9 |
| 20260504011530 | 35 | 0 | 0.0 | 0.0 | 0.00 | 0.00 | 0.00 | 75 | 1008.7 |
| 20260504010037 | 36 | 0 | 0.0 | 0.0 | 0.00 | 0.00 | 0.00 | 72 | 1008.5 |
| 20260504004532 | 38 | 0 | 0.0 | 0.0 | 0.00 | 0.00 | 0.00 | 70 | 1008.4 |
| 20260504003032 | 39 | 0 | 0.0 | 0.0 | 0.00 | 0.00 | 0.00 | 67 | 1008.2 |
| 20260504001536 | 40 | 0 | 0.0 | 0.0 | 0.00 | 0.00 | 0.00 | 61 | 1008.0 |
| 20260504000030 | 41 | 0 | 0.0 | 1.0 | 0.00 | 0.00 | 0.00 | 59 | 1007.9 |
| 20260503234532 | 42 | 0 | 0.0 | 1.0 | 0.00 | 0.00 | 0.00 | 56 | 1007.7 |
| 20260503233034 | 43 | 294 | 1.0 | 7.0 | 0.00 | 0.00 | 0.00 | 54 | 1007.6 |
| 20260503231534 | 45 | 0 | 0.0 | 2.0 | 0.00 | 0.00 | 0.00 | 57 | 1007.4 |
| 20260503230039 | 45 | 298 | 0.0 | 1.0 | 0.00 | 0.00 | 0.00 | 56 | 1007.4 |
| 20260503224530 | 45 | 287 | 0.0 | 2.0 | 0.00 | 0.00 | 0.00 | 52 | 1007.4 |
| 20260503223031 | 45 | 198 | 0.0 | 3.0 | 0.00 | 0.00 | 0.00 | 53 | 1007.4 |
| 20260503221533 | 46 | 0 | 0.0 | 4.0 | 0.00 | 0.00 | 0.00 | 49 | 1007.3 |
| 20260503220033 | 47 | 189 | 1.0 | 6.0 | 0.00 | 0.00 | 0.00 | 49 | 1007.2 |
| 20260503214539 | 46 | 259 | 1.0 | 4.0 | 0.00 | 0.00 | 0.00 | 50 | 1007.2 |
| 20260503213031 | 46 | 0 | 0.0 | 6.0 | 0.00 | 0.00 | 0.00 | 50 | 1007.3 |
| 20260503211533 | 48 | 205 | 1.0 | 4.0 | 0.00 | 0.00 | 0.00 | 46 | 1007.1 |
| 20260503210030 | 47 | 214 | 1.0 | 3.0 | 0.00 | 0.00 | 0.00 | 50 | 1007.0 |
| 20260503204532 | 47 | 303 | 2.0 | 7.0 | 0.00 | 0.02 | 0.00 | 49 | 1007.0 |
| 20260503203035 | 47 | 315 | 1.0 | 7.0 | 0.00 | 0.02 | 0.00 | 50 | 1006.8 |
| 20260503201532 | 48 | 275 | 2.0 | 8.0 | 0.00 | 0.02 | 0.00 | 47 | 1006.7 |
| 20260503200032 | 48 | 271 | 2.0 | 6.0 | 0.00 | 0.02 | 0.00 | 46 | 1006.6 |
| 20260503194529 | 47 | 51 | 2.0 | 7.0 | 0.00 | 0.10 | 0.00 | 46 | 1006.6 |
| 20260503193043 | 46 | 21 | 2.0 | 8.0 | 0.00 | 0.10 | 0.00 | 49 | 1006.7 |
| 20260503191559 | 47 | 286 | 1.0 | 10.0 | 0.00 | 0.10 | 0.00 | 50 | 1006.8 |
| 20260503190034 | 46 | 280 | 1.0 | 10.0 | 0.00 | 0.10 | 0.00 | 46 | 1006.8 |
| 20260503184536 | 47 | 244 | 2.0 | 6.0 | 0.00 | 0.14 | 0.00 | 46 | 1006.8 |
| 20260503183035 | 49 | 282 | 1.0 | 7.0 | 0.00 | 0.14 | 0.00 | 46 | 1006.6 |
| 20260503181544 | 47 | 223 | 1.0 | 5.0 | 0.00 | 0.14 | 0.00 | 48 | 1006.6 |
| 20260503180033 | 47 | 171 | 2.0 | 9.0 | 0.00 | 0.14 | 0.00 | 48 | 1006.6 |
| 20260503174534 | 48 | 231 | 1.0 | 7.0 | 0.00 | 0.14 | 0.00 | 45 | 1006.5 |
| 20260503173035 | 48 | 248 | 2.0 | 4.0 | 0.00 | 0.14 | 0.00 | 48 | 1006.4 |
| 20260503171535 | 47 | 0 | 1.0 | 5.0 | 0.00 | 0.14 | 0.00 | 53 | 1006.4 |
| 20260503081540 | 33 | 0 | 0.0 | 0.0 | 0.00 | 0.28 | 0.00 | 99 | 1008.5 |
| 20260503071530 | 33 | 0 | 0.0 | 0.0 | 0.00 | 0.29 | 0.00 | 98 | 1008.7 |
| 20260503054544 | 33 | 0 | 0.0 | 0.0 | 0.00 | 0.34 | 0.00 | 98 | 1009.7 |
| 20260503053032 | 33 | 0 | 0.0 | 1.0 | 0.00 | 0.34 | 0.00 | 98 | 1009.7 |
| 20260503051532 | 33 | 0 | 0.0 | 1.0 | 0.00 | 0.34 | 0.00 | 98 | 1009.9 |
| 20260503050034 | 33 | 0 | 0.0 | 1.0 | 0.00 | 0.34 | 0.00 | 97 | 1010.1 |
| 20260503044539 | 34 | 0 | 0.0 | 1.0 | 0.00 | 0.34 | 0.00 | 97 | 1010.1 |
| 20260503043042 | 34 | 0 | 0.0 | 0.0 | 0.00 | 0.34 | 0.00 | 97 | 1010.3 |
| 20260503041532 | 34 | 0 | 0.0 | 0.0 | 0.00 | 0.34 | 0.00 | 97 | 1010.6 |
| 20260503040035 | 35 | 0 | 0.0 | 0.0 | 0.00 | 0.34 | 0.00 | 96 | 1010.6 |
| 20260503034532 | 35 | 0 | 0.0 | 0.0 | 0.00 | 0.34 | 0.34 | 96 | 1010.7 |
| 20260503033034 | 36 | 0 | 0.0 | 0.0 | 0.00 | 0.34 | 0.34 | 96 | 1011.0 |
| 20260503031534 | 37 | 0 | 0.0 | 0.0 | 0.00 | 0.34 | 0.34 | 96 | 1010.9 |
| 20260503030036 | 38 | 0 | 0.0 | 0.0 | 0.00 | 0.34 | 0.34 | 96 | 1011.0 |
| 20260503024537 | 38 | 0 | 0.0 | 0.0 | 0.00 | 0.34 | 0.34 | 96 | 1011.0 |
| 20260503023036 | 39 | 0 | 0.0 | 0.0 | 0.00 | 0.34 | 0.34 | 96 | 1011.1 |